User: anonymous   Login
Location: Unspecified
(0.0000°N, 0.0000°E)
Time: 00:50:39
(UTC+00:00)
Language:

NAVSTAR 65 (USA 213) - Orbit

View from above orbital plane
View from above orbital plane
View from above satellite
View from above satellite

Ground track
Ground track

The orbit is defined by the following mean orbital elements,

1 36585U          26143.78349725 +.00000000 +00000-0 +00000-0 0 00001
2 36585  54.2724 209.5453 0126358  66.1078 118.5533  2.00561193    07
Epoch (UTC): 23 May 2026 18:48:14
Eccentricity: 0.0126358
inclination: 54.2724°
perigee height: 19847 km
apogee height: 20518 km
right ascension of ascending node: 209.5453°
argument of perigee: 66.1078°
revolutions per day: 2.00561193
mean anomaly at epoch: 118.5533°

The dashed part of the orbit path shows where the satellite is in the earth's shadow,  

DLR